Temp
-10 -10 -10 -10 -10 -11 -11 -10 -11 -11 -11 -11 -11 -11 -11 -11 -10 -10 -10 -12 -11 -11 -11 -12 -12 -12 -11 -11 -11 -10 -10 -10 -10 -10 -11 -11 -11 -11 -11 -11 -11 -11 -11 -11 -12
-11 -10 -10 -10 -10 -10 -10 -10 -10 -11 -11 -11 -11 -11 -12 -11 -10 -10 -11 -12 -11 -11 -11 -12 -12 -12 -11 -11 -11 -10 -10 -10 -11 -11 -11 -11 -11 -11 -11 -11 -11 -11 -12 -12 -11
-10 -10 -10 -10 -10 -10 -10 -10 -10 -11 -11 -11 -10 -11 -11 -10 -10 -9 -12 -12 -12 -12 -12 -12 -12 -12 -11 -11 -11 -11 -11 -11 -11 -11 -11 -11 -10 -11 -11 -10 -11 -11 -12 -11 -10
-9 -10 -10 -10 -10 -10 -9 -9 -10 -10 -11 -11 -11 -11 -10 -10 -9 -10 -12 -13 -13 -13 -12 -12 -12 -12 -11 -11 -11 -11 -11 -11 -11 -11 -11 -10 -11 -10 -11 -10 -11 -11 -11 -10 -11
-9 -9 -9 -10 -10 -10 -10 -10 -10 -10 -10 -10 -11 -11 -10 -9 -8 -11 -12 -12 -12 -13 -13 -13 -12 -12 -12 -12 -12 -11 -11 -12 -11 -11 -10 -11 -11 -11 -10 -11 -11 -11 -10 -11 -12
-9 -9 -9 -9 -9 -9 -10 -10 -10 -10 -10 -10 -10 -10 -10 -8 -10 -11 -11 -11 -12 -13 -13 -13 -13 -13 -12 -12 -12 -12 -11 -11 -11 -9 -10 -11 -11 -10 -9 -11 -11 -10 -10 -12 -12
-9 -9 -9 -9 -9 -9 -9 -10 -10 -11 -10 -10 -10 -10 -9 -8 -10 -11 -11 -11 -11 -12 -12 -13 -13 -13 -12 -12 -12 -12 -12 -11 -9 -10 -10 -11 -9 -9 -10 -11 -9 -9 -11 -12 -11
-9 -9 -9 -9 -9 -9 -9 -9 -10 -10 -10 -10 -10 -10 -7 -10 -11 -10 -11 -11 -11 -11 -12 -13 -13 -12 -11 -12 -12 -12 -11 -9 -9 -11 -10 -11 -8 -10 -11 -10 -9 -10 -11 -11 -12
-9 -9 -9 -9 -10 -10 -10 -10 -9 -9 -10 -10 -10 -10 -7 -10 -10 -12 -12 -12 -12 -11 -12 -13 -13 -12 -12 -12 -12 -11 -9 -9 -10 -11 -11 -11 -8 -10 -9 -10 -10 -11 -12 -12 -12
-9 -9 -10 -9 -10 -10 -10 -10 -10 -10 -10 -10 -10 -9 -9 -9 -10 -11 -12 -12 -12 -12 -12 -12 -12 -11 -11 -11 -9 -10 -10 -11 -10 -11 -12 -10 -8 -9 -9 -10 -9 -10 -12 -12 -12
-8 -8 -9 -10 -11 -10 -11 -11 -11 -11 -10 -10 -9 -9 -9 -9 -10 -10 -11 -11 -11 -11 -11 -12 -12 -8 -9 -10 -11 -11 -11 -11 -10 -11 -12 -10 -9 -9 -10 -9 -9 -10 -10 -11 -11
-7 -8 -10 -12 -14 -14 -13 -13 -12 -12 -11 -11 -10 -9 -10 -10 -10 -11 -11 -11 -11 -10 -11 -12 -9 -10 -11 -12 -12 -11 -11 -11 -10 -11 -12 -10 -10 -10 -10 -10 -10 -10 -10 -11 -11
-13 -16 -17 -18 -20 -19 -18 -16 -14 -13 -12 -12 -11 -10 -10 -11 -10 -11 -11 -11 -11 -11 -11 -11 -11 -12 -12 -12 -12 -11 -11 -11 -10 -11 -12 -10 -9 -9 -10 -10 -10 -10 -11 -11 -11
-18 -20 -22 -22 -22 -22 -22 -21 -21 -17 -13 -11 -13 -12 -11 -12 -10 -12 -11 -11 -11 -11 -12 -11 -12 -12 -12 -11 -12 -11 -11 -12 -11 -11 -11 -11 -9 -10 -11 -10 -10 -11 -10 -11 -11
-21 -22 -22 -22 -23 -23 -23 -23 -22 -22 -18 -16 -14 -13 -13 -12 -11 -12 -13 -12 -11 -11 -12 -9 -11 -11 -12 -11 -13 -11 -13 -12 -11 -11 -11 -11 -10 -8 -11 -10 -11 -10 -11 -11 -11
-22 -23 -23 -23 -23 -23 -23 -23 -23 -24 -20 -19 -17 -15 -13 -13 -11 -12 -13 -13 -12 -12 -11 -11 -11 -12 -12 -13 -13 -13 -13 -11 -11 -11 -11 -10 -10 -9 -11 -11 -10 -11 -11 -11 -11
-24 -24 -24 -24 -24 -24 -24 -24 -24 -23 -22 -21 -19 -18 -14 -13 -12 -12 -12 -12 -11 -11 -10 -11 -10 -10 -11 -12 -13 -13 -12 -11 -11 -10 -9 -10 -11 -10 -10 -10 -10 -11 -11 -11 -12
-24 -24 -24 -24 -24 -24 -24 -24 -24 -23 -23 -21 -21 -20 -17 -15 -14 -13 -12 -12 -12 -11 -11 -11 -11 -10 -10 -10 -10 -10 -11 -10 -10 -10 -10 -10 -11 -11 -11 -10 -11 -11 -11 -11 -12
-24 -24 -24 -24 -24 -24 -25 -25 -24 -24 -24 -23 -22 -21 -20 -18 -16 -14 -12 -12 -12 -12 -12 -12 -10 -11 -11 -11 -11 -10 -10 -11 -11 -11 -10 -11 -10 -11 -9 -10 -11 -11 -11 -12 -13
-24 -24 -24 -25 -25 -25 -25 -26 -25 -25 -25 -25 -23 -21 -20 -19 -17 -14 -14 -12 -12 -13 -13 -13 -12 -12 -12 -12 -12 -11 -11 -11 -11 -11 -11 -10 -9 -9 -10 -11 -11 -11 -12 -13 -13
-24 -25 -26 -26 -26 -26 -26 -26 -26 -25 -25 -25 -24 -21 -20 -19 -17 -15 -13 -13 -13 -13 -12 -13 -12 -12 -12 -10 -10 -11 -11 -11 -11 -11 -10 -9 -9 -10 -11 -11 -10 -11 -12 -13 -12
-25 -26 -26 -26 -26 -26 -26 -26 -26 -26 -25 -25 -24 -22 -21 -19 -18 -17 -15 -15 -13 -13 -13 -12 -12 -12 -11 -11 -11 -11 -11 -10 -10 -9 -10 -9 -9 -11 -10 -10 -10 -11 -13 -13 -12
-26 -26 -26 -26 -26 -26 -26 -26 -26 -26 -26 -25 -23 -21 -22 -20 -18 -17 -18 -17 -14 -13 -12 -12 -11 -11 -13 -12 -11 -10 -10 -10 -11 -11 -10 -10 -10 -11 -10 -10 -11 -12 -13 -12 -12
-26 -27 -27 -26 -26 -26 -26 -27 -26 -26 -26 -25 -24 -24 -23 -21 -19 -18 -19 -18 -16 -14 -13 -12 -11 -11 -10 -10 -10 -10 -10 -10 -11 -11 -10 -9 -11 -12 -11 -11 -11 -12 -12 -12 -12
-26 -27 -27 -27 -27 -26 -26 -26 -26 -26 -25 -25 -25 -25 -25 -23 -20 -18 -18 -18 -17 -15 -13 -11 -10 -11 -11 -11 -11 -10 -10 -10 -9 -9 -10 -9 -10 -11 -11 -11 -11 -13 -12 -12 -12
-26 -26 -26 -26 -26 -26 -26 -27 -26 -26 -26 -26 -25 -25 -25 -24 -22 -20 -18 -18 -17 -16 -13 -11 -11 -11 -11 -11 -11 -10 -10 -11 -11 -10 -10 -10 -11 -11 -11 -11 -11 -12 -11 -12 -12
-26 -26 -26 -27 -27 -26 -26 -26 -26 -26 -26 -26 -26 -25 -25 -24 -23 -21 -19 -18 -17 -17 -13 -12 -11 -10 -10 -11 -11 -11 -10 -11 -10 -10 -10 -10 -10 -12 -11 -10 -11 -11 -11 -12 -11
Height
5808 5808 5808 5807 5807 5808 5810 5811 5812 5814 5816 5817 5818 5821 5825 5828 5832 5837 5842 5847 5838 5840 5846 5849 5852 5854 5852 5854 5853 5852 5848 5854 5857 5856 5856 5856 5853 5854 5848 5844 5842 5838 5835 5834 5830
5800 5799 5799 5799 5799 5800 5801 5802 5803 5805 5806 5806 5808 5811 5813 5816 5821 5824 5840 5833 5830 5834 5840 5841 5844 5843 5843 5845 5844 5843 5840 5847 5852 5849 5847 5847 5845 5846 5842 5840 5839 5835 5832 5829 5826
5791 5791 5791 5791 5791 5791 5791 5791 5792 5794 5795 5796 5797 5800 5802 5804 5809 5817 5821 5823 5826 5827 5830 5833 5835 5835 5836 5837 5840 5835 5832 5843 5842 5843 5838 5838 5838 5838 5831 5832 5833 5829 5826 5823 5824
5783 5782 5781 5780 5779 5778 5778 5779 5780 5782 5783 5786 5787 5788 5790 5792 5794 5805 5811 5813 5817 5820 5821 5823 5824 5825 5829 5828 5835 5823 5828 5832 5834 5835 5830 5828 5826 5825 5825 5823 5825 5822 5819 5818 5819
5774 5772 5771 5770 5769 5768 5768 5769 5769 5770 5771 5773 5775 5777 5779 5780 5788 5796 5804 5805 5806 5809 5812 5813 5813 5818 5817 5822 5822 5815 5824 5823 5823 5824 5825 5820 5818 5814 5815 5819 5818 5815 5813 5812 5812
5765 5763 5761 5759 5758 5757 5757 5757 5759 5759 5760 5761 5762 5764 5766 5767 5784 5786 5787 5791 5793 5797 5800 5802 5807 5810 5805 5811 5809 5815 5811 5813 5815 5817 5816 5812 5808 5807 5814 5813 5811 5809 5807 5807 5808
5753 5750 5748 5747 5745 5745 5744 5743 5744 5745 5747 5749 5750 5750 5753 5764 5771 5774 5768 5776 5781 5785 5789 5794 5796 5797 5797 5800 5802 5803 5799 5803 5809 5811 5811 5806 5799 5806 5808 5805 5805 5803 5802 5802 5802
5738 5734 5732 5730 5729 5728 5728 5728 5729 5730 5732 5735 5737 5739 5741 5755 5753 5760 5765 5764 5768 5772 5779 5782 5783 5783 5781 5787 5790 5792 5791 5795 5806 5809 5809 5798 5796 5803 5799 5798 5800 5799 5797 5795 5793
5722 5717 5713 5710 5708 5707 5708 5709 5711 5714 5716 5719 5723 5726 5729 5739 5743 5749 5748 5754 5754 5758 5761 5768 5767 5769 5773 5773 5778 5780 5785 5790 5796 5801 5797 5791 5791 5795 5794 5793 5794 5792 5791 5789 5788
5703 5696 5692 5689 5686 5685 5685 5685 5688 5693 5698 5703 5707 5713 5718 5725 5728 5735 5737 5741 5743 5745 5748 5750 5752 5754 5760 5762 5762 5776 5781 5785 5788 5795 5787 5785 5784 5791 5789 5787 5787 5786 5785 5784 5782
5679 5671 5665 5660 5656 5656 5659 5660 5665 5670 5679 5686 5691 5699 5703 5706 5715 5721 5726 5729 5732 5735 5735 5739 5743 5740 5749 5760 5765 5771 5772 5777 5784 5786 5779 5781 5780 5788 5786 5784 5782 5782 5781 5778 5777
5647 5636 5629 5624 5623 5623 5626 5628 5636 5644 5656 5664 5672 5681 5688 5692 5696 5707 5714 5718 5721 5725 5732 5733 5728 5740 5748 5750 5753 5759 5763 5770 5776 5782 5772 5776 5775 5780 5780 5778 5778 5779 5776 5774 5773
5616 5608 5601 5597 5595 5595 5593 5597 5606 5614 5628 5649 5652 5661 5672 5674 5681 5693 5701 5706 5711 5715 5719 5724 5736 5735 5736 5739 5742 5747 5755 5767 5771 5773 5767 5768 5769 5774 5774 5773 5774 5773 5771 5770 5770
5597 5591 5587 5585 5582 5579 5578 5579 5579 5585 5599 5629 5633 5638 5650 5656 5664 5680 5688 5694 5698 5705 5712 5715 5724 5726 5726 5729 5734 5740 5754 5760 5763 5763 5764 5761 5757 5768 5768 5768 5768 5767 5767 5767 5766
5585 5581 5579 5575 5573 5570 5571 5568 5567 5568 5577 5600 5603 5616 5625 5638 5652 5665 5671 5680 5691 5695 5702 5708 5716 5721 5723 5729 5732 5741 5748 5752 5753 5753 5753 5757 5753 5762 5762 5763 5764 5763 5763 5764 5763
5578 5574 5570 5566 5562 5561 5560 5559 5560 5560 5565 5579 5577 5592 5601 5617 5632 5640 5653 5665 5677 5684 5693 5698 5706 5712 5719 5722 5725 5734 5738 5742 5742 5743 5738 5755 5750 5759 5759 5760 5762 5761 5762 5761 5759
5570 5566 5561 5558 5555 5552 5550 5549 5550 5549 5563 5566 5566 5572 5584 5602 5617 5623 5642 5648 5661 5669 5678 5683 5691 5700 5709 5711 5718 5724 5728 5731 5733 5732 5731 5750 5746 5755 5754 5756 5757 5757 5759 5756 5754
5561 5556 5551 5548 5545 5542 5539 5539 5538 5545 5550 5548 5553 5559 5567 5582 5592 5608 5630 5641 5653 5665 5668 5676 5684 5691 5700 5705 5714 5720 5723 5724 5723 5725 5737 5743 5741 5750 5749 5749 5751 5755 5755 5753 5750
5551 5545 5540 5537 5533 5529 5529 5529 5532 5537 5536 5537 5551 5552 5556 5565 5575 5596 5620 5633 5643 5654 5659 5668 5674 5683 5693 5699 5707 5714 5710 5722 5724 5730 5732 5732 5743 5742 5744 5746 5749 5752 5751 5750 5747
5543 5535 5529 5526 5524 5523 5524 5525 5526 5527 5527 5532 5537 5543 5550 5559 5569 5585 5599 5615 5629 5639 5648 5657 5664 5675 5685 5688 5695 5702 5702 5712 5712 5717 5720 5731 5736 5739 5741 5743 5746 5749 5748 5746 5745
5535 5529 5524 5524 5523 5522 5522 5520 5519 5519 5519 5526 5529 5536 5543 5553 5562 5572 5587 5600 5610 5621 5631 5644 5653 5667 5673 5679 5688 5690 5690 5702 5708 5712 5719 5728 5733 5736 5737 5741 5744 5744 5745 5744 5743
5530 5527 5523 5524 5525 5523 5520 5519 5516 5515 5516 5522 5528 5533 5537 5544 5551 5560 5571 5584 5594 5608 5620 5631 5640 5654 5668 5670 5679 5683 5692 5701 5704 5712 5717 5723 5730 5730 5733 5737 5740 5740 5741 5742 5740
5528 5525 5523 5523 5523 5521 5518 5517 5517 5516 5516 5519 5522 5528 5532 5535 5540 5549 5559 5570 5584 5598 5609 5620 5632 5644 5652 5660 5669 5678 5686 5691 5699 5705 5710 5718 5725 5727 5730 5734 5736 5736 5739 5739 5736
5530 5525 5523 5521 5521 5518 5518 5517 5516 5516 5517 5516 5519 5520 5522 5526 5532 5542 5552 5563 5573 5583 5596 5609 5623 5636 5646 5658 5672 5674 5678 5684 5692 5697 5709 5714 5719 5722 5727 5732 5735 5733 5737 5736 5734
5531 5525 5522 5521 5521 5519 5517 5516 5514 5514 5513 5513 5516 5516 5516 5521 5527 5535 5544 5555 5565 5575 5587 5605 5621 5633 5646 5653 5662 5669 5677 5682 5687 5697 5700 5714 5717 5719 5724 5730 5731 5732 5733 5735 5733
5533 5527 5523 5520 5519 5518 5516 5514 5513 5512 5511 5509 5512 5513 5515 5519 5522 5526 5536 5548 5560 5571 5584 5599 5612 5622 5635 5646 5654 5659 5667 5674 5683 5691 5698 5706 5711 5716 5721 5725 5726 5728 5731 5733 5732
5534 5529 5524 5520 5517 5516 5515 5514 5513 5510 5510 5507 5507 5510 5511 5513 5517 5520 5530 5544 5557 5567 5578 5592 5604 5615 5632 5641 5648 5646 5656 5666 5678 5686 5695 5699 5709 5713 5716 5721 5723 5726 5729 5731 5731
Wind_Speed
28 28 31 33 34 34 36 38 41 43 48 52 51 52 58 62 62 55 43 41 45 50 48 40 35 36 40 42 43 41 46 39 35 37 28 29 30 33 38 41 39 46 39 33 38
33 34 35 37 40 41 42 41 41 43 46 49 53 53 56 55 56 55 40 47 53 54 50 41 40 44 44 44 48 47 42 36 40 37 37 36 39 36 41 44 48 40 34 35 40
35 36 39 41 42 42 44 45 47 45 44 41 47 53 54 53 53 46 45 45 49 56 50 45 43 47 44 44 46 49 46 41 44 41 44 43 41 38 45 37 31 31 35 38 32
35 38 39 42 44 46 46 45 46 50 51 50 45 45 53 58 61 56 52 51 49 53 55 55 46 50 50 47 43 53 47 46 44 42 45 47 51 45 38 32 26 33 37 30 25
36 37 40 42 44 46 48 49 49 49 50 51 53 53 53 54 54 55 53 55 54 53 57 57 56 51 54 48 49 54 48 49 47 45 44 50 51 42 30 25 29 34 31 20 25
37 40 43 45 46 49 51 51 52 48 47 51 54 55 57 54 47 50 52 53 62 62 63 63 58 54 57 51 54 51 51 50 49 41 45 45 34 30 12 22 30 31 22 18 27
46 47 48 48 48 51 53 54 56 56 52 50 49 52 52 41 42 45 54 55 58 65 65 63 61 60 60 56 54 55 56 52 41 36 29 33 30 23 14 26 25 24 19 21 19
55 56 57 58 58 58 56 57 58 59 59 55 52 52 40 40 46 45 44 50 54 58 60 61 63 66 67 61 59 59 56 45 31 36 20 34 20 13 24 26 19 16 18 13 15
61 64 66 68 69 67 66 64 62 61 62 62 59 55 43 43 45 40 45 42 47 53 58 60 62 65 66 64 64 60 46 39 33 26 25 36 28 23 24 24 19 14 13 13 17
68 71 75 78 79 78 76 74 72 68 66 63 63 60 54 51 47 47 47 45 43 49 56 61 64 64 62 63 57 51 47 43 30 14 27 34 35 24 23 26 23 16 12 13 17
80 84 86 84 85 87 87 84 82 78 72 69 65 60 60 58 53 53 45 49 46 42 49 60 62 58 57 53 56 55 49 41 24 17 31 33 32 18 27 29 23 14 12 10 17
93 96 94 85 78 87 89 89 89 85 80 75 71 65 61 62 59 52 52 52 51 44 36 43 45 47 51 54 56 52 49 37 24 14 34 31 31 23 27 27 19 12 9 11 15
79 65 62 59 55 57 68 81 86 89 86 76 76 72 66 65 62 56 50 49 51 50 47 43 28 31 33 40 46 47 43 29 22 18 35 36 32 26 26 21 13 9 10 11 12
49 43 39 37 39 39 42 49 55 70 85 81 74 78 74 70 65 57 54 52 51 52 45 45 38 34 30 33 37 39 24 24 26 27 33 38 40 27 26 13 15 12 10 7 11
38 37 36 36 36 36 33 34 37 43 61 61 71 75 76 75 68 58 56 53 49 49 48 44 37 35 33 26 28 24 27 29 28 31 35 35 40 15 21 14 14 12 3 4 7
34 32 30 30 33 33 33 34 34 32 39 34 57 63 73 75 73 68 59 54 49 47 44 47 42 36 30 29 37 34 32 31 32 37 47 30 39 11 17 18 11 4 3 9 9
32 30 31 29 30 30 29 29 35 36 22 30 41 44 66 67 71 73 62 62 57 53 50 51 52 42 36 39 40 41 39 38 41 47 49 27 34 15 18 14 10 5 4 10 12
34 36 36 35 33 34 31 29 31 34 33 36 36 40 52 58 59 70 67 60 56 50 50 46 47 48 41 41 39 39 41 45 48 50 39 29 28 15 19 11 9 5 5 8 13
33 36 36 35 33 27 24 26 25 22 37 43 32 28 41 47 55 58 64 64 56 52 50 47 43 43 41 41 40 38 47 41 43 39 39 38 23 27 14 5 3 3 3 9 16
37 34 31 22 17 12 16 23 24 25 28 31 40 42 37 35 49 55 62 66 62 57 52 47 43 39 37 35 38 41 46 43 45 44 42 30 27 20 12 8 5 4 4 10 19
31 25 13 6 9 6 9 14 21 30 33 25 32 52 42 40 49 61 65 69 67 65 61 53 47 38 38 39 40 43 47 44 42 39 35 26 22 18 14 13 8 5 4 10 18
28 15 6 3 9 8 15 8 8 13 25 22 27 54 41 47 48 60 72 71 73 69 66 59 53 43 36 43 39 42 39 36 37 31 30 27 20 22 17 11 7 6 1 15 14
27 13 2 1 5 13 15 13 10 6 11 18 25 53 53 48 53 58 67 66 71 72 70 66 58 49 43 47 43 42 37 39 36 35 35 29 22 21 16 8 6 6 2 12 15
28 14 9 4 6 9 11 14 14 13 9 15 22 31 47 53 52 58 62 66 63 74 73 70 64 56 53 47 41 41 44 43 41 39 27 25 23 21 19 13 12 5 6 7 12
25 17 11 10 8 13 15 12 13 12 16 16 14 22 28 54 52 57 57 71 54 71 74 70 65 57 51 46 44 43 40 39 38 30 34 22 24 23 20 16 11 7 2 4 7
26 20 11 11 12 16 16 9 11 8 5 15 15 20 22 38 53 54 54 69 58 62 70 70 67 62 57 51 47 47 44 41 38 34 30 23 23 20 19 18 14 9 3 2 5
24 23 18 13 11 11 11 11 15 9 10 11 10 18 21 25 48 59 48 60 64 58 70 68 67 65 59 53 50 54 49 43 36 35 30 28 21 24 22 14 12 8 4 1 2
Wind_Direction
258 258 254 257 256 255 256 257 257 256 256 257 253 251 247 250 250 258 255 230 240 240 248 254 255 255 254 250 259 268 270 278 282 285 273 284 282 277 278 285 293 299 289 292 292
260 255 255 258 259 260 259 257 254 254 257 254 250 248 250 249 248 249 253 243 246 242 242 254 258 255 259 260 259 274 279 286 288 281 278 282 288 289 276 271 280 283 279 280 280
264 259 257 256 256 256 257 259 257 256 256 254 251 249 248 246 246 247 253 243 242 247 247 252 253 254 262 260 263 275 278 280 278 284 279 284 287 287 289 277 281 263 267 269 282
263 263 265 261 258 256 257 257 257 257 257 253 252 252 251 252 249 249 247 244 242 246 248 248 262 256 262 257 263 266 269 275 279 278 276 285 290 287 281 270 269 261 265 274 292
266 263 261 260 262 261 261 255 257 259 256 253 253 251 249 248 245 253 245 244 244 240 242 250 257 257 261 257 258 265 268 271 273 280 286 287 293 287 259 270 262 259 262 288 294
273 268 264 260 258 257 257 259 256 256 256 255 253 252 250 253 251 249 249 243 238 239 244 247 255 252 256 255 257 262 265 266 271 284 291 293 284 267 262 252 250 255 273 279 284
278 276 272 267 262 259 256 254 253 251 250 254 254 253 252 252 250 244 248 246 242 241 244 248 251 248 256 255 256 258 261 263 273 287 294 289 268 261 249 243 252 269 270 266 274
278 276 273 269 266 262 257 255 252 250 252 251 251 252 259 253 248 245 246 250 247 246 244 243 241 246 252 254 253 256 260 267 275 281 280 270 262 250 234 244 271 257 250 276 315
276 273 270 268 265 261 258 254 251 249 247 248 249 248 253 251 248 247 243 246 246 242 240 241 244 245 248 251 252 254 260 267 281 270 272 261 255 231 237 253 253 255 283 294 303
278 275 271 266 262 259 256 253 250 247 245 245 245 246 248 246 239 242 246 245 242 240 235 235 240 244 245 245 251 258 263 269 265 244 268 246 254 243 255 258 264 266 270 276 298
284 281 276 269 263 259 255 250 249 245 242 242 241 241 243 247 241 240 237 245 244 242 242 238 240 244 247 251 256 257 263 265 230 252 259 253 259 253 255 270 263 254 258 293 316
285 281 279 278 270 260 255 252 247 245 241 239 238 238 238 240 243 236 238 238 244 245 246 244 248 251 255 255 255 252 254 250 224 240 254 248 252 255 270 272 271 266 292 310 317
293 291 286 282 277 267 261 256 250 246 241 236 238 236 233 236 237 238 232 235 238 241 243 247 261 255 248 246 246 246 248 224 234 234 245 255 257 264 270 265 264 260 299 310 315
300 298 293 289 284 279 269 265 260 248 242 236 234 237 234 236 234 234 233 229 231 238 240 243 242 240 251 242 239 241 214 251 244 237 240 255 262 256 260 255 263 278 294 326 315
305 296 290 286 282 280 277 269 265 260 242 237 238 232 233 231 233 230 235 229 228 231 234 236 239 242 242 237 220 199 240 245 237 232 238 234 259 252 245 246 267 269 254 270 343
303 294 290 290 287 283 272 261 259 259 250 236 235 232 231 229 226 226 224 226 223 229 230 233 232 234 231 234 216 226 237 238 235 232 239 229 252 221 227 239 236 173 245 267 331
300 294 292 293 297 294 282 264 247 246 246 220 228 221 228 227 225 227 219 223 216 219 221 224 228 226 227 227 224 228 232 233 236 237 244 241 245 201 222 209 184 196 273 291 349
298 292 291 294 292 291 272 262 250 242 233 220 216 211 218 220 219 221 221 219 217 217 223 229 229 228 223 228 228 231 239 239 237 235 245 233 234 208 209 191 184 211 259 323 349
305 298 295 293 293 287 252 257 251 244 233 229 210 199 205 196 206 213 216 216 216 214 219 223 223 226 229 233 232 236 236 238 240 240 245 242 216 210 212 209 187 206 291 337 338
312 307 303 294 296 277 253 254 253 245 243 238 223 209 183 186 190 200 205 209 210 208 215 220 224 221 220 227 213 220 236 222 224 225 232 231 216 202 206 207 188 196 345 352 317
324 325 323 357 336 329 309 292 258 246 243 241 230 208 175 180 179 187 195 205 203 206 209 208 212 211 210 213 209 217 220 213 224 228 228 221 221 200 206 221 183 152 322 320 308
330 332 330 166 309 294 305 298 326 257 249 224 222 212 196 180 178 182 188 198 200 200 207 206 206 200 200 212 207 213 222 221 229 222 219 218 196 204 208 198 192 141 297 306 324
347 333 315 139 310 312 299 291 282 288 257 225 212 215 219 189 183 181 185 191 198 199 202 206 204 194 197 207 205 206 205 211 219 221 218 217 176 200 206 195 202 141 324 294 336
360 336 283 284 273 303 321 317 296 282 273 244 232 229 226 205 190 179 187 187 194 197 200 202 202 196 197 198 198 204 207 210 212 219 213 210 180 196 208 217 224 144 234 301 321
359 353 324 315 335 327 322 300 300 293 286 268 255 250 242 227 197 190 179 189 188 196 198 201 201 200 195 198 197 203 210 215 217 213 219 200 205 209 212 215 208 199 200 284 312
5 1 330 308 312 307 332 330 349 306 269 268 256 255 257 240 225 212 188 193 187 195 195 199 199 201 194 198 197 203 204 209 216 215 217 208 207 212 218 209 210 199 213 224 305
351 360 354 6 307 312 323 318 326 312 289 292 279 247 249 248 237 222 189 186 193 194 193 193 197 200 192 197 200 206 202 206 210 213 208 201 198 207 231 207 215 220 222 219 264